カタログに戻る

ELECTRON KICK STAGE R/B

運用中LEO
NORAD 57694·ROCKET BODY·🇺🇸 United States

打ち上げ Aug 23, 2023 から Rocket Lab Launch Complex 1

Loading…

次のパス (今後24時間)

TLE

最新Source: Space-Track

元期: Sep 14, 2026, 16:12 UTC

1 57694U 23126B   26257.67539801  .00001363  00000-0  18575-3 0  9998
2 57694  53.0081 144.9281 0007106 293.9388  66.0846 14.84872984165585

AllMySatでELECTRON KICK STAGE R/Bをリアルタイム追跡

Download on the App Store